Overview Statistics Trail Chart Weather Telemetry Raw packets
 

This is the latest recevied weather packets stored in our database for station/object KI6SYE. If no packets are shown the sender has not sent any weather packets the latest 10 day(s).

<< 59 60 61 62 63 64 65 >>
Time Temp. Humidity Pressure Rain* Wind** Luminosity Snow
1788273072 18.89° C 87% 1014.8 hPa 0 mm - 67 W/m² -
1788272768 18.89° C 88% 1014.7 hPa 0 mm - 57 W/m² -
1788272467 18.33° C 90% 1014.6 hPa 0 mm - 48 W/m² -
1788272162 17.78° C 91% 1014.4 hPa 0 mm - 42 W/m² -
1788271857 17.78° C 91% 1014.4 hPa 0 mm - 36 W/m² -
1788271555 17.22° C 92% 1014.6 hPa 0 mm - 31 W/m² -
1788271255 17.22° C 92% 1014.5 hPa 0 mm - 26 W/m² -
1788270954 17.22° C 92% 1014.4 hPa 0 mm - 22 W/m² -
1788270650 16.67° C 92% 1014.3 hPa 0 mm - 16 W/m² -
1788270346 16.67° C 92% 1014.3 hPa 0 mm - 12 W/m² -
1788270040 16.67° C 92% 1014.3 hPa 0 mm - 9 W/m² -
1788269739 16.67° C 92% 1014.3 hPa 0 mm - 7 W/m² -
1788269439 16.67° C 92% 1014.4 hPa 0 mm - 4 W/m² -
1788269139 16.67° C 92% 1014.3 hPa 0 mm - 2 W/m² -
1788268833 16.67° C 92% 1014.1 hPa 0 mm - 1 W/m² -
1788268527 17.22° C 91% 1014.2 hPa 0 mm - 1 W/m² -
1788268222 17.22° C 91% 1014.3 hPa 0 mm - 0 W/m² -
1788267922 17.22° C 91% 1014.1 hPa 0 mm - 0 W/m² -
1788267620 17.22° C 91% 1013.9 hPa 0 mm - 0 W/m² -
1788267320 17.22° C 91% 1014 hPa 0 mm - 0 W/m² -
1788267014 17.22° C 91% 1013.9 hPa 0 mm - 0 W/m² -
1788266709 17.22° C 90% 1014 hPa 0 mm - 0 W/m² -
1788266404 17.22° C 90% 1014 hPa 0 mm - 0 W/m² -
1788266099 17.78° C 90% 1014.1 hPa 0 mm - 0 W/m² -
1788265797 17.78° C 90% 1014.3 hPa 0 mm - 0 W/m² -

* Rain latest hour (hover to see other rain measurements)
** Current wind speed in m/s (hover to see current wind gust speed)